TimeEDT,TemperatureF,Dew PointF,Humidity,Sea Level PressureIn,VisibilityMPH,Wind Direction,Wind SpeedMPH,Gust SpeedMPH,PrecipitationIn,Events,Conditions,WindDirDegrees,DateUTC
12:53 AM,66.9,64.9,93,30.14,3.0,Calm,Calm,-,N/A,,Scattered Clouds,0,2013-08-22 04:53:00
1:53 AM,69.1,66.0,90,30.15,3.0,Calm,Calm,-,N/A,,Scattered Clouds,0,2013-08-22 05:53:00
2:53 AM,68.0,66.9,96,30.14,3.0,Calm,Calm,-,N/A,,Mostly Cloudy,0,2013-08-22 06:53:00
3:53 AM,69.1,66.9,93,30.13,3.0,Calm,Calm,-,N/A,,Overcast,0,2013-08-22 07:53:00
4:53 AM,69.1,66.9,93,30.13,3.0,Calm,Calm,-,N/A,,Overcast,0,2013-08-22 08:53:00
5:53 AM,69.1,66.9,93,30.13,2.0,Calm,Calm,-,N/A,,Overcast,0,2013-08-22 09:53:00
6:53 AM,69.1,66.9,93,30.14,1.0,West,3.5,-,N/A,,Overcast,260,2013-08-22 10:53:00
7:53 AM,69.1,66.9,93,30.15,1.0,SSW,4.6,-,N/A,,Overcast,210,2013-08-22 11:53:00
8:06 AM,69.1,66.9,93,30.22,1.0,SW,3.5,-,N/A,,Overcast,220,2013-08-22 12:06:00
8:36 AM,70.0,68.0,93,30.22,1.0,Calm,Calm,-,N/A,,Overcast,0,2013-08-22 12:36:00
8:51 AM,71.6,68.0,88,30.23,2.5,SW,3.5,-,N/A,,Overcast,220,2013-08-22 12:51:00
8:52 AM,71.1,68.0,90,30.16,2.5,SW,3.5,-,N/A,,Overcast,220,2013-08-22 12:52:00
9:05 AM,71.1,68.0,90,30.23,2.5,WSW,3.5,-,N/A,,Overcast,240,2013-08-22 13:05:00
9:08 AM,71.1,68.0,90,30.23,2.5,Calm,Calm,-,N/A,,Overcast,0,2013-08-22 13:08:00
9:53 AM,72.0,68.0,87,30.15,5.0,SSW,4.6,-,N/A,,Mostly Cloudy,210,2013-08-22 13:53:00
10:53 AM,75.0,66.9,76,30.15,7.0,WSW,4.6,-,N/A,,Mostly Cloudy,250,2013-08-22 14:53:00
11:53 AM,80.1,66.0,62,30.14,10.0,West,5.8,-,N/A,,Mostly Cloudy,270,2013-08-22 15:53:00
12:53 PM,81.0,64.9,58,30.13,10.0,WNW,5.8,-,N/A,,Scattered Clouds,300,2013-08-22 16:53:00
1:53 PM,82.0,64.0,54,30.10,10.0,Variable,5.8,-,N/A,,Mostly Cloudy,0,2013-08-22 17:53:00
2:53 PM,84.0,64.0,51,30.08,10.0,West,5.8,-,N/A,,Scattered Clouds,280,2013-08-22 18:53:00
3:53 PM,84.0,63.0,49,30.05,10.0,West,5.8,-,N/A,,Scattered Clouds,270,2013-08-22 19:53:00
4:53 PM,84.0,64.0,51,30.04,10.0,Variable,3.5,-,N/A,,Mostly Cloudy,0,2013-08-22 20:53:00
5:53 PM,82.9,64.0,53,30.01,10.0,WNW,6.9,-,N/A,,Mostly Cloudy,290,2013-08-22 21:53:00
6:53 PM,82.0,64.9,56,30.01,10.0,West,8.1,-,N/A,,Scattered Clouds,270,2013-08-22 22:53:00
7:53 PM,78.1,66.0,66,30.03,10.0,NNW,4.6,-,N/A,,Mostly Cloudy,330,2013-08-22 23:53:00
8:53 PM,73.9,68.0,82,30.04,10.0,Calm,Calm,-,N/A,,Mostly Cloudy,0,2013-08-23 00:53:00
9:53 PM,71.1,66.9,87,30.05,9.0,Calm,Calm,-,N/A,,Mostly Cloudy,0,2013-08-23 01:53:00
10:53 PM,71.1,68.0,90,30.06,9.0,Calm,Calm,-,N/A,,Mostly Cloudy,0,2013-08-23 02:53:00
11:53 PM,71.1,68.0,90,30.05,8.0,Calm,Calm,-,N/A,,Mostly Cloudy,0,2013-08-23 03:53:00